Location: Pilipovskiye Korichintsy
(49.1833°N, 27.4667°E)
Time: 12:20:46
(UTC+00:00)

ADEOS II - Pass Details

Date: 14 July 2020
Orbit: 799 x 801 km, 98.5° (Epoch: 07 August)

Event Time Altitude Azimuth Distance (km) Brightness Sun altitude
Rises 01:15:44 0° 10° (N) 3,323 6.4 -8.7°
Reaches altitude 10° 01:18:07 10° 6° (N) 2,388 5.5 -8.4°
Maximum altitude 01:23:13 52° 292° (WNW) 992 2.5 -7.9°
Drops below altitude 10° 01:28:17 10° 217° (SW) 2,371 3.9 -7.3°
Enters shadow 01:28:37 - 216° (SW) 2,495 4.0 -7.3°
